Tracking 29892 objects as of 21-Nov-2024
HD Live streaming from Space Station
objects crossing your sky now

STARLINK-3941

Track STARLINK-3941 now!
10-day predictions
STARLINK-3941 is classified as:


NORAD ID: 52638
Int'l Code: 2022-052AS
Perigee: 545.8 km
Apogee: 547.9 km
Inclination: 53.2 °
Period: 95.4 minutes
Semi major axis: 6917 km
RCS: Unknown
Launch date: May 14, 2022
Source: United States (US)
Launch site: AIR FORCE EASTERN TEST RANGE (AFETR)
Your satellite tracking list
Your tracking list is empty




NASA's NSSDC Master Catalog

Two Line Element Set (TLE):
1 52638U 22052AS  24325.15701021  .00001998  00000-0  14357-3 0  9998
2 52638  53.2173 239.3790 0001550  83.9922 276.1246 15.08850703140161
Source of the keplerian elements: AFSPC